EW3156 Weather Reports


time (UTC)temp
C
wind
direction
speed
KPH
gust
KPH
rain 1hr
cm
rain 24hr
cm
rain mn
cm
humidity
%
barometer
mb
20260505011602 20 207 0.0 0.0 0.00 0.00 0.00 57 1013.0
20260505004600 21 207 0.0 0.0 0.00 0.00 0.00 52 1012.9
20260505003059 22 207 0.0 1.6 0.00 0.00 0.00 50 1012.8
20260505001555 22 211 0.0 4.8 0.00 0.00 0.00 49 1012.6
20260505000100 23 34 0.0 1.6 0.00 0.00 0.00 47 1012.6
20260504234615 23 87 0.0 4.8 0.00 0.00 0.00 45 1012.7
20260504233053 23 240 0.0 8.0 0.00 0.00 0.00 45 1012.8
20260504231555 24 193 1.6 8.0 0.00 0.00 0.00 44 1012.8
20260504230050 25 130 0.0 6.4 0.00 0.00 0.00 46 1012.9
20260504224649 25 136 0.0 8.0 0.00 0.00 0.00 43 1013.0
20260504223047 25 178 1.6 12.9 0.00 0.00 0.00 43 1013.1
20260504221557 25 55 0.0 11.3 0.00 0.00 0.00 43 1013.2
20260504220050 25 165 1.6 4.8 0.00 0.00 0.00 43 1013.1
20260504214550 26 169 1.6 4.8 0.00 0.00 0.00 42 1013.3
20260504213051 26 70 1.6 6.4 0.00 0.00 0.00 41 1013.4
20260504211542 26 297 1.6 8.0 0.00 0.00 0.00 42 1013.5
20260504210052 26 95 1.6 6.4 0.00 0.00 0.00 39 1013.5
20260504204619 26 54 0.0 6.4 0.00 0.00 0.00 39 1013.6
20260504203038 27 65 1.6 11.3 0.00 0.00 0.00 40 1013.7
20260504201536 26 147 1.6 9.7 0.00 0.00 0.00 40 1013.8
20260504200038 26 293 1.6 8.0 0.00 0.00 0.00 38 1014.0
20260504194541 26 67 3.2 8.0 0.00 0.00 0.00 39 1014.3
20260504193031 26 102 1.6 4.8 0.00 0.00 0.00 43 1014.5
20260504191529 26 200 1.6 6.4 0.00 0.00 0.00 44 1014.7
20260504190030 26 88 0.0 6.4 0.00 0.00 0.00 43 1014.8
20260504184525 26 157 3.2 8.0 0.00 0.00 0.00 43 1015.2
20260504183022 26 77 3.2 9.7 0.00 0.00 0.00 41 1015.3
20260504181519 26 121 3.2 6.4 0.00 0.00 0.00 43 1015.6
20260504180017 25 182 0.0 3.2 0.00 0.00 0.00 44 1015.8
20260504174515 25 150 0.0 8.0 0.00 0.00 0.00 46 1015.9
20260504173011 25 192 0.0 6.4 0.00 0.00 0.00 45 1016.2
20260504171531 24 285 1.6 11.3 0.00 0.00 0.00 46 1016.3
20260504081531 7 268 0.0 0.0 0.00 0.00 0.00 95 1017.1
20260504050006 10 268 0.0 0.0 0.00 0.00 0.00 89 1018.3
20260504044504 10 268 0.0 0.0 0.00 0.00 0.00 88 1018.4
20260504043002 10 268 0.0 0.0 0.00 0.00 0.00 87 1018.6
20260504041501 11 268 0.0 0.0 0.00 0.00 0.00 85 1018.6
20260504040005 11 268 0.0 0.0 0.00 0.00 0.00 85 1018.5
20260504034503 11 268 0.0 0.0 0.00 0.00 0.00 84 1018.8
20260504033100 11 268 0.0 0.0 0.00 0.00 0.00 82 1018.9
20260504031600 11 268 0.0 0.0 0.00 0.00 0.00 80 1018.9
20260504030059 12 268 0.0 0.0 0.00 0.00 0.00 78 1018.8
20260504024559 12 268 0.0 0.0 0.00 0.00 0.00 76 1018.6
20260504023058 12 268 0.0 0.0 0.00 0.00 0.00 75 1018.5
20260504021557 13 268 0.0 0.0 0.00 0.00 0.00 73 1018.3
20260504020057 13 268 0.0 0.0 0.00 0.00 0.00 71 1018.3
20260504014611 14 268 0.0 0.0 0.00 0.00 0.00 68 1018.2
20260504013056 15 268 0.0 0.0 0.00 0.00 0.00 67 1018.0